AEROCUBE 6A

Last updated on Sat Aug 30 2025 00:03:48 GMT+0000 (Coordinated Universal Time)

1 40045U 14033AM 25241.03973105 .00007605 00000+0 72325-3 0 9995 2 40045 97.7011 47.5214 0041211 272.1684 87.4817 14.93084771602942
UTC large
Height (km)
Speed (km/s)
/
Latitude / Longitude
Inclination (degrees)
Orbital Period (minutes)
Azimuth
Elevation
Range (km)
Doppler Factor

Next 0 passes for location: London (51.5072 / 0.1276)

Sorry there are no passes over London.